Theta_e
340 339 338 337 337 337 336 336 336 336 336 336 335 336 335 334 334 331 330 335 336 334 331 329 328 326 325 324 323 323 323 321 321 321 322 319 315 315 315 316 318 321 324 326 327 327 327 327 327 327 327 327 328 328 328 327 327 328 328 328 329 330 330 329 327 325 326 328 328 328 329 329 330 329 329 329 328 327 326 325 326 326 327 328 328
339 338 337 336 336 336 336 335 336 336 335 334 334 336 335 336 337 334 333 334 335 332 327 325 325 324 324 323 324 326 324 323 323 321 318 314 310 312 315 317 318 318 319 321 323 324 324 324 324 324 324 324 324 325 325 325 325 327 327 327 328 330 330 329 327 327 328 330 330 330 330 330 329 329 328 329 329 329 328 326 326 326 328 329 327
338 338 337 337 336 335 335 335 336 336 334 333 334 335 336 336 336 336 335 334 333 329 326 324 324 324 323 323 324 325 323 323 322 318 314 310 307 309 312 316 319 318 317 317 318 319 319 319 318 317 319 319 320 320 322 324 324 325 326 327 327 328 329 329 328 328 329 330 330 330 330 330 330 328 328 328 328 328 327 328 328 326 327 328 327
338 338 338 338 337 336 335 335 336 336 334 334 334 335 334 331 331 334 333 332 331 328 327 325 324 324 322 320 320 320 318 316 317 314 312 310 309 310 310 312 318 320 319 319 318 316 317 319 317 316 318 319 319 319 320 321 322 323 324 325 326 327 330 329 327 327 328 330 330 329 329 329 329 328 328 329 328 327 326 327 328 327 328 328 328
338 338 338 338 338 336 335 335 336 336 334 334 334 333 330 326 328 328 326 329 330 328 328 325 325 323 319 317 316 316 315 315 319 318 313 311 311 311 308 311 318 319 320 321 320 318 316 317 317 316 317 318 320 321 320 320 321 322 322 323 325 326 328 328 327 326 327 328 329 329 329 329 328 327 328 328 328 328 327 327 328 327 328 328 328
337 338 339 339 338 334 334 335 335 335 333 334 334 330 328 327 328 325 324 330 330 327 326 325 325 322 317 316 315 317 319 322 324 321 318 316 313 311 309 311 316 317 320 322 320 319 317 315 317 319 318 317 320 322 320 320 321 320 320 323 324 324 325 327 326 326 326 327 328 329 329 329 328 328 328 327 327 327 327 327 327 328 328 327 327
337 337 338 336 332 331 333 333 333 334 333 334 334 332 329 329 328 325 325 329 330 327 326 325 325 322 318 317 318 322 324 322 319 316 316 314 312 311 309 309 313 315 318 320 320 318 315 314 316 319 320 319 319 321 321 321 321 320 321 323 324 323 324 326 326 326 326 327 327 328 328 328 327 328 328 327 326 327 327 326 326 327 327 325 325
336 337 335 330 328 330 331 330 330 333 334 333 335 334 331 329 328 325 324 327 329 329 327 326 325 322 318 316 318 321 319 312 309 308 310 311 311 314 313 311 312 314 315 317 317 314 310 309 309 312 317 319 319 320 320 320 320 320 319 321 323 324 324 326 327 326 327 328 327 327 328 327 327 326 326 327 327 325 326 326 325 326 325 324 324
336 335 334 331 330 330 329 328 329 331 333 334 335 335 333 332 329 325 324 325 329 331 328 326 325 321 317 314 313 315 311 306 307 307 307 310 311 313 315 313 310 311 311 313 313 310 306 306 306 307 310 315 317 317 314 315 318 320 318 318 320 321 322 324 325 326 327 328 327 327 327 327 326 326 325 327 327 325 324 326 325 325 324 324 325
335 334 334 333 332 331 329 328 327 327 330 333 335 334 333 333 331 329 327 324 328 332 329 326 324 320 317 313 310 308 307 307 308 306 307 310 311 311 314 315 312 310 309 309 308 307 306 306 307 306 306 309 312 313 313 314 314 314 313 313 315 317 319 321 323 325 326 326 326 327 327 326 326 327 327 327 328 326 325 326 326 325 324 323 324
334 334 334 333 332 332 330 329 329 329 331 333 334 332 329 329 331 332 330 324 327 332 329 326 323 317 316 314 309 307 308 308 307 306 307 310 313 314 314 315 314 310 308 307 306 306 306 306 306 306 306 306 307 309 313 315 313 311 312 312 310 310 312 312 313 317 321 322 323 324 324 324 325 325 326 327 327 326 326 326 325 324 323 322 322
332 333 333 333 333 333 331 330 331 330 331 331 332 331 328 326 328 331 331 325 326 331 329 327 323 316 314 314 310 308 308 308 308 306 307 310 312 313 313 311 310 309 309 308 306 306 307 306 306 306 306 307 306 307 309 311 312 313 313 311 309 308 309 310 309 311 316 318 318 318 319 320 321 321 322 325 326 326 326 324 322 322 321 320 319
332 332 332 332 332 332 330 329 330 329 329 329 329 330 328 325 324 328 329 325 325 330 329 327 324 317 314 314 311 311 308 307 308 306 307 311 311 310 310 310 310 310 310 308 306 306 306 306 307 306 306 306 306 306 306 307 310 312 309 307 308 308 309 310 309 308 311 313 314 315 316 317 318 319 320 322 323 324 324 323 321 320 321 319 318
331 331 331 331 332 331 330 329 329 329 329 327 327 328 327 325 324 325 326 323 324 329 330 328 324 316 315 316 313 312 309 308 308 306 307 311 309 307 308 310 310 310 309 307 306 306 306 306 306 305 306 305 305 305 305 305 308 310 308 305 306 306 305 306 305 305 305 306 310 312 311 311 313 314 316 319 320 322 322 321 321 320 320 319 318
331 330 331 331 332 330 329 328 328 328 328 326 326 327 325 324 323 323 324 324 324 328 329 328 324 317 316 316 315 315 313 308 308 307 306 308 307 306 307 307 307 308 307 306 306 306 306 306 306 305 305 305 305 305 305 304 306 307 306 304 304 304 304 304 304 304 304 303 304 306 307 306 307 309 312 313 316 320 320 320 320 320 319 318 317
331 331 331 331 331 329 328 326 326 326 327 326 325 325 324 323 323 323 326 325 324 327 325 320 320 317 316 317 317 319 317 310 308 307 306 306 306 306 306 306 306 306 306 306 306 306 306 306 306 306 306 306 305 305 305 305 304 305 304 303 303 303 303 303 303 303 303 303 302 304 306 305 303 305 307 307 310 315 319 319 319 318 318 317 317
329 329 329 329 329 328 327 325 323 324 325 325 323 323 323 325 325 325 327 324 323 326 322 315 317 318 316 318 320 320 320 315 309 307 307 306 306 306 306 306 306 306 306 306 306 306 307 307 307 307 306 306 306 306 306 305 305 305 305 304 304 303 303 303 303 303 303 303 303 304 306 305 303 303 305 304 304 309 315 318 317 317 317 316 316
327 328 328 327 325 324 324 324 323 323 324 324 323 321 320 322 324 324 325 324 322 325 324 320 320 319 316 319 321 321 322 320 314 308 307 307 307 307 306 306 307 307 306 307 307 307 307 307 307 308 308 308 307 307 307 307 307 306 305 305 305 305 305 304 304 304 303 304 304 304 306 305 304 303 303 303 302 305 311 314 315 316 316 316 316
325 326 327 326 323 321 322 323 323 323 324 325 324 321 319 321 323 323 323 324 323 322 322 322 321 320 318 319 322 322 322 322 318 310 307 307 307 307 307 307 307 307 307 307 307 307 308 309 309 310 310 310 310 310 309 308 309 309 309 309 306 306 307 305 305 305 305 305 305 305 306 306 305 306 305 304 304 305 309 311 312 313 315 316 316
323 325 326 326 325 322 319 319 321 321 322 324 323 320 320 321 322 324 324 324 322 319 318 319 319 319 319 320 323 324 323 322 321 314 308 307 307 307 307 307 307 307 307 308 308 308 309 311 312 313 313 313 313 313 312 312 312 312 314 313 308 308 312 310 308 307 306 307 307 306 307 306 307 309 308 307 307 307 308 310 311 312 313 314 315
325 326 326 324 323 319 316 316 316 316 318 320 321 321 321 322 323 324 325 324 322 319 318 318 318 319 320 320 323 324 323 322 322 317 310 307 307 307 307 307 308 307 308 308 308 310 311 313 315 316 316 316 316 316 316 316 316 315 315 314 310 311 315 314 311 310 309 309 309 309 308 306 307 309 309 309 309 308 308 310 310 312 312 313 314
325 326 325 324 321 318 316 316 315 315 315 315 316 317 319 323 325 324 326 325 323 322 321 320 320 321 321 321 323 325 323 322 322 320 313 308 308 307 308 308 307 307 308 309 310 311 313 315 316 317 318 318 318 318 318 318 318 318 317 317 315 314 315 314 313 314 314 311 310 312 311 308 307 308 309 310 310 309 310 310 309 310 311 311 312
325 326 326 325 324 320 317 316 315 317 318 316 315 318 322 325 327 326 326 326 325 324 324 324 324 323 323 323 324 324 323 322 322 320 315 311 309 308 309 309 308 308 308 309 312 313 315 317 318 317 318 318 318 318 318 318 318 319 318 318 318 317 317 317 316 317 317 315 314 314 314 311 309 309 309 310 310 310 310 309 309 309 310 310 311
326 327 326 326 326 324 322 320 318 318 320 321 322 326 328 328 329 328 328 327 326 326 326 326 326 325 324 324 325 325 324 323 323 321 317 314 313 310 310 310 310 310 311 311 314 315 316 318 318 318 318 317 317 317 318 319 319 318 318 317 318 318 318 318 318 318 318 318 317 317 316 315 313 313 312 312 311 311 311 310 310 311 312 312 313
326 326 326 326 327 326 326 325 324 323 324 326 327 328 328 329 328 328 328 327 327 326 327 327 327 326 325 325 326 325 323 323 323 322 318 317 318 315 311 312 313 313 313 314 315 316 317 318 319 318 318 317 317 317 318 319 319 319 318 317 316 317 317 318 318 318 319 319 319 318 318 317 316 316 315 314 314 313 311 311 311 312 313 314 314
325 325 325 325 325 325 326 326 326 326 327 327 327 327 327 327 327 327 327 327 327 326 327 327 327 327 326 326 326 323 323 324 323 322 320 318 320 319 315 313 314 314 314 314 315 317 318 319 319 319 318 316 316 315 316 317 318 318 317 316 316 317 317 317 318 318 319 319 319 319 319 318 318 317 317 316 315 313 312 312 311 311 312 313 314
323 324 324 323 323 323 324 324 324 325 325 325 325 325 325 325 325 325 325 325 325 326 326 326 327 327 327 327 325 323 323 323 322 322 320 318 320 321 319 316 316 316 315 315 316 318 318 319 319 318 317 316 315 315 315 316 317 317 317 317 317 318 317 317 317 318 318 319 320 319 319 319 318 318 318 317 316 315 314 313 312 311 310 311 313
321 322 322 321 321 321 321 322 322 323 323 323 324 323 324 324 324 324 324 324 324 324 325 326 327 327 327 327 325 323 324 324 323 322 320 318 319 321 321 320 318 318 317 316 316 316 316 317 317 316 315 315 315 315 315 315 316 317 318 318 318 318 318 318 318 318 318 319 319 319 319 319 318 319 318 318 317 317 316 315 314 313 312 311 311
320 319 320 320 319 320 320 320 320 321 321 322 322 321 322 323 324 324 323 323 324 324 324 324 325 326 326 325 324 323 323 323 323 322 320 319 320 321 322 321 320 319 318 318 317 316 316 317 316 316 316 317 317 316 316 316 317 318 318 318 318 318 318 319 320 320 320 319 319 319 319 318 318 317 317 316 316 317 318 317 316 315 313 312 311
318 318 317 317 317 318 319 320 320 320 321 321 321 321 321 322 323 323 323 323 324 324 324 324 324 324 324 324 324 323 322 321 320 320 320 320 320 322 323 321 320 320 319 319 319 319 319 319 319 318 318 318 317 317 317 317 317 317 317 317 317 317 318 318 319 320 319 318 318 318 318 318 318 317 316 316 316 317 317 317 317 316 315 313 312
317 316 316 316 315 315 316 318 319 320 321 321 321 321 321 322 322 322 322 323 323 324 324 324 324 324 323 324 324 323 322 322 321 321 321 321 320 321 321 319 319 319 319 318 319 319 318 318 318 318 318 318 318 318 317 317 316 315 314 314 314 313 313 313 314 317 317 316 315 315 316 316 317 316 316 315 316 316 316 316 317 317 316 315 314
315 315 314 314 314 313 313 314 314 316 317 318 319 320 320 320 320 321 321 321 321 322 323 323 323 324 323 323 323 322 321 321 321 321 321 321 320 320 320 319 319 319 319 319 318 318 318 318 318 319 319 318 318 317 316 315 314 313 311 311 311 311 312 312 312 314 316 315 315 314 313 313 313 312 311 311 312 312 314 315 316 317 317 317 316
313 313 313 313 312 312 311 311 311 312 312 313 315 316 316 316 316 316 316 315 316 317 318 319 320 321 321 321 321 321 321 320 321 320 320 320 320 320 320 319 320 319 318 317 317 317 317 317 318 318 318 317 316 316 315 313 313 312 311 310 308 308 309 310 310 311 313 314 313 312 312 312 311 310 308 308 309 309 310 313 316 317 317 317 317
310 310 310 311 311 309 309 309 309 309 310 310 311 311 311 311 311 311 312 311 311 312 313 314 314 315 315 316 317 318 317 317 318 318 318 319 318 318 318 317 316 315 314 314 315 316 316 316 316 316 315 315 315 314 313 312 311 309 307 305 304 303 304 304 304 305 308 310 311 311 312 312 311 309 308 308 309 309 308 310 313 316 317 316 316
306 306 306 307 308 308 307 307 307 308 308 308 309 309 309 309 309 309 310 309 310 310 310 310 310 311 311 312 314 314 313 313 314 314 315 315 315 315 314 313 313 313 312 312 313 313 313 313 312 312 311 310 309 307 306 305 304 303 302 302 301 301 302 302 302 302 304 306 308 309 310 309 309 309 309 309 309 309 309 310 312 314 315 315 315
303 303 303 304 305 306 306 306 306 307 307 307 307 307 307 308 307 308 308 309 309 309 309 309 309 309 310 311 311 311 311 312 312 312 313 312 311 311 311 311 312 312 312 312 311 310 309 308 308 309 308 305 303 303 302 302 302 301 301 302 303 303 302 302 302 302 302 304 306 308 309 309 310 310 311 310 309 309 310 311 313 314 314 313 312
302 302 302 302 303 304 305 305 305 305 305 306 306 306 307 308 307 307 308 309 309 309 309 309 309 309 309 309 310 310 310 310 310 311 311 310 309 309 309 310 310 310 310 309 308 308 308 306 306 308 308 305 303 303 303 302 302 301 302 304 307 307 304 301 301 301 302 303 304 306 309 311 312 312 312 311 309 309 310 311 312 311 311 310 310
302 302 301 301 301 302 303 303 303 303 304 305 306 307 308 308 308 307 308 308 308 308 309 308 309 309 309 309 309 309 309 310 310 310 309 308 308 308 309 309 310 310 309 309 308 307 307 306 305 306 307 306 304 303 302 302 302 301 301 305 309 309 305 302 301 301 301 301 303 305 307 310 310 310 309 308 306 306 309 310 309 309 308 308 308
301 300 300 300 300 301 302 301 301 302 302 303 304 306 306 307 307 307 308 309 308 308 308 308 308 308 308 308 308 308 308 309 309 308 308 307 307 308 308 308 310 310 310 309 308 308 307 306 305 304 304 305 304 302 302 301 301 301 301 304 309 310 308 306 305 304 302 301 301 303 304 305 305 305 304 304 303 304 307 308 307 307 307 307 306
299 299 299 300 299 299 300 300 300 301 301 301 302 304 304 305 305 306 307 307 307 307 307 307 308 307 307 307 308 308 308 308 308 308 307 307 307 307 306 307 308 310 310 309 309 309 308 306 305 303 303 303 303 302 301 301 301 301 301 302 307 309 308 308 308 307 305 303 301 301 302 302 302 303 303 303 303 304 305 306 306 306 306 306 306
299 297 297 299 299 299 298 299 299 299 300 300 301 302 302 303 304 305 305 305 306 306 306 306 306 306 306 307 308 308 308 309 309 309 308 308 308 307 306 306 307 308 308 308 307 308 307 305 303 302 302 301 301 300 300 300 300 301 300 300 305 308 308 307 308 308 307 306 302 300 302 303 303 303 304 304 305 305 305 305 305 305 305 305 305
298 297 297 297 298 298 297 297 297 297 298 299 299 299 300 301 302 303 302 302 304 304 304 305 305 305 305 306 307 308 308 309 309 309 309 308 308 308 307 306 307 307 306 305 305 306 306 304 302 302 301 301 300 300 300 300 300 300 300 299 302 305 305 306 307 307 307 306 303 301 303 305 304 304 305 305 305 305 304 304 304 304 304 304 304
297 297 297 296 297 297 297 296 296 296 296 297 297 297 298 298 299 300 301 301 302 302 302 303 303 304 304 305 305 306 306 307 308 308 308 308 308 307 306 306 307 306 306 305 304 304 305 303 302 301 301 301 301 301 301 300 300 300 300 299 300 302 302 304 307 307 306 305 303 302 304 305 305 305 305 305 304 303 302 302 302 302 302 302 301
297 296 296 295 296 296 296 295 296 296 296 296 296 296 296 296 297 298 299 300 300 300 301 301 301 301 302 302 302 303 304 305 306 306 308 308 308 307 307 307 307 306 307 307 306 305 305 304 304 304 303 301 301 301 300 300 300 299 299 299 299 300 300 302 305 306 306 305 304 303 305 305 305 305 305 304 303 301 301 300 300 299 298 297 296
296 296 295 295 295 295 295 295 296 295 296 296 295 296 296 295 296 296 296 297 298 299 300 300 300 301 301 301 302 302 302 302 304 305 307 307 307 307 307 307 307 307 307 307 307 306 306 306 306 306 305 304 303 301 300 300 300 299 299 299 299 299 299 301 304 306 305 304 304 305 305 305 305 304 304 303 302 301 300 299 297 295 295 294 294
295 295 295 295 295 295 295 295 295 295 295 295 295 295 295 295 295 295 295 296 296 296 297 298 299 300 300 301 302 302 302 302 302 303 305 307 307 308 308 307 307 307 306 306 306 306 306 305 305 305 306 306 304 302 300 300 300 299 299 299 299 299 299 301 304 305 305 305 305 305 305 305 305 304 303 303 302 300 298 296 295 294 294 293 294
294 294 294 294 294 294 294 294 294 295 295 295 295 295 295 295 295 295 295 296 295 295 296 296 297 298 299 300 301 302 302 303 303 303 304 305 306 307 307 307 307 307 306 306 306 306 305 305 305 304 305 306 305 303 301 300 299 299 299 299 299 299 299 301 304 305 305 305 305 305 305 304 304 303 303 302 300 297 295 294 294 294 294 294 294
293 293 293 293 293 293 293 294 294 294 294 294 294 294 294 295 295 295 295 295 295 295 295 295 296 297 298 299 300 300 301 301 303 304 305 305 305 306 307 307 306 306 306 306 306 306 305 305 305 304 304 305 305 304 303 301 300 299 299 300 299 299 300 301 303 305 305 305 305 304 304 303 303 302 300 298 296 294 293 293 293 293 294 294 294
292 292 292 292 293 293 293 293 293 293 293 293 294 294 294 294 294 294 294 295 295 295 295 295 295 296 297 298 300 300 301 301 302 304 305 304 304 305 306 306 306 306 306 306 306 306 306 306 305 304 304 305 305 304 304 302 300 299 300 300 300 300 301 302 303 304 305 305 304 303 302 301 300 299 297 295 294 293 293 293 294 294 294 294 294
292 292 292 293 293 293 293 293 293 293 293 293 293 293 293 293 293 293 294 294 294 294 295 295 296 297 298 299 300 300 301 302 302 303 304 303 302 302 303 305 306 306 305 305 306 306 305 305 304 304 304 304 304 304 302 300 299 299 300 301 301 301 301 301 303 304 304 304 303 301 300 298 297 296 295 294 293 293 293 293 294 294 294 294 294
292 293 293 293 293 293 293 293 293 292 292 292 292 292 292 292 293 293 293 293 293 294 295 296 297 298 298 299 300 301 301 302 302 302 303 304 304 303 303 303 304 304 304 304 304 303 303 303 302 303 303 302 300 300 300 299 299 300 300 300 301 302 301 301 303 303 303 302 300 298 297 296 295 294 294 293 293 293 293 293 293 293 293 293 293
Wind_Speed
16 17 16 16 16 15 13 13 14 15 18 19 18 17 19 21 21 23 22 19 18 17 14 12 10 10 9 9 10 9 7 7 7 6 5 3 3 3 3 3 2 2 2 2 2 2 3 3 3 2 1 1 2 2 3 3 2 3 6 7 7 7 7 8 7 7 6 6 7 7 7 6 6 6 5 5 7 8 10 10 10 11 11 11 9
16 16 17 17 18 16 13 14 14 15 18 19 18 17 20 20 19 21 22 19 17 15 14 13 11 11 10 10 10 9 7 7 6 6 5 3 4 5 5 5 4 3 3 3 2 2 2 2 2 3 3 3 3 3 3 3 2 2 3 4 5 6 6 6 6 6 5 5 5 5 6 6 6 6 5 6 6 6 6 7 8 9 8 8 6
18 18 18 18 18 16 14 14 14 15 17 17 17 18 19 18 15 17 18 17 15 14 14 14 13 10 10 10 10 10 8 8 8 6 4 4 5 6 6 6 6 5 4 4 3 2 1 0 1 2 2 1 1 2 3 3 2 2 2 3 2 3 5 5 6 7 5 5 6 6 5 5 7 6 6 7 6 5 4 3 5 6 6 7 6
19 19 20 19 18 16 14 13 13 15 15 15 16 15 16 15 12 13 17 15 15 15 14 14 14 11 10 10 10 9 9 9 8 6 6 6 7 6 7 8 7 6 6 5 4 4 3 2 1 1 1 1 1 0 1 2 2 2 2 2 2 2 3 4 5 7 7 6 5 5 5 5 5 4 5 6 5 5 4 2 4 4 4 6 5
19 19 19 18 17 15 14 13 13 15 14 14 15 14 14 16 12 13 18 17 16 16 14 15 14 12 11 11 10 10 9 9 8 6 7 7 7 7 6 8 8 7 7 6 5 5 4 3 2 2 3 3 2 1 1 1 1 1 1 1 2 2 3 4 3 4 7 7 5 5 5 5 3 2 4 5 5 5 3 2 3 3 4 5 3
17 17 17 15 13 14 15 14 13 14 14 14 16 15 16 17 15 16 18 17 17 17 15 15 13 10 10 11 11 11 10 9 7 7 7 7 7 7 7 8 8 7 7 6 5 5 4 4 4 3 4 4 3 2 1 1 1 1 1 1 1 2 3 4 3 3 5 6 7 6 5 4 3 2 4 4 4 4 4 3 2 1 3 5 3
15 13 11 7 9 11 13 14 15 17 15 16 17 18 18 17 17 19 18 16 15 16 15 14 12 10 10 11 11 12 11 9 8 8 8 8 7 7 7 8 8 7 7 6 6 6 6 6 5 5 5 4 3 2 2 0 1 1 1 1 1 1 3 3 3 3 3 4 5 5 4 5 5 4 5 3 3 3 4 4 3 1 3 5 4
11 9 6 9 10 7 10 14 20 21 16 16 17 19 19 18 19 21 19 16 13 13 14 14 12 11 12 12 12 12 11 10 9 8 9 8 8 8 8 8 8 7 7 8 7 7 8 8 7 7 6 5 4 3 2 1 1 1 1 1 1 1 1 1 1 2 2 3 3 3 3 5 4 4 5 4 2 4 5 3 3 3 3 3 3
8 8 9 7 5 9 16 19 21 23 20 16 16 19 21 20 21 21 18 16 13 11 13 15 12 12 12 12 12 13 12 10 9 8 9 9 9 10 9 8 8 9 10 10 10 10 11 11 10 10 9 8 6 4 4 4 4 2 1 1 1 1 1 2 2 2 1 1 1 1 2 2 2 2 3 3 3 5 6 4 3 2 1 1 0
9 11 10 11 9 9 16 22 23 25 24 20 17 17 18 18 16 18 17 15 14 11 12 14 13 13 13 11 11 12 12 10 9 9 9 10 10 10 10 8 8 10 12 12 11 11 12 12 12 11 11 10 8 7 8 7 6 4 3 3 2 2 2 1 2 2 3 3 3 2 1 0 1 1 1 2 3 4 5 6 5 4 5 4 2
11 13 11 10 8 5 11 18 18 18 17 17 16 12 13 14 11 13 16 16 15 13 12 14 14 14 13 11 11 12 11 10 9 10 10 11 11 10 10 9 10 11 12 12 11 11 12 12 12 11 11 11 10 10 9 8 8 7 6 5 4 4 3 2 2 2 3 3 4 4 2 2 2 2 2 1 1 2 3 5 6 6 7 7 5
15 15 12 9 8 6 9 12 11 13 14 15 15 9 11 14 12 13 16 17 17 15 14 15 14 15 14 13 12 12 12 10 9 10 11 12 12 11 11 11 12 12 11 11 11 11 11 11 11 11 10 11 11 11 10 10 9 8 8 7 7 8 7 6 5 5 5 4 4 5 4 3 3 2 3 2 1 2 4 6 7 8 9 9 9
16 14 11 10 8 10 14 14 11 12 15 15 14 10 10 15 15 14 15 17 18 17 17 16 14 15 15 14 13 13 12 11 10 10 12 12 12 12 12 12 12 12 11 11 11 11 11 11 11 10 10 10 10 10 10 11 11 9 8 9 8 8 8 8 8 8 7 6 6 6 5 4 3 3 3 3 2 3 5 6 7 7 9 9 9
15 13 10 9 8 11 15 16 15 15 16 17 17 14 14 17 18 16 15 17 20 20 18 16 14 15 16 15 14 13 13 12 10 11 13 13 13 13 13 12 12 12 11 11 11 11 11 11 11 11 11 11 10 10 10 11 11 9 8 9 9 9 9 8 8 9 9 8 7 6 6 5 5 4 4 4 4 3 5 6 6 7 7 8 7
13 11 10 9 10 13 14 13 16 16 15 18 19 16 17 19 22 21 18 18 21 21 18 15 13 15 17 16 15 13 12 13 12 11 13 14 14 14 14 13 13 12 11 11 11 11 11 11 11 11 11 11 11 12 11 11 11 11 9 9 9 9 9 9 9 9 9 9 9 8 7 6 6 5 5 4 3 3 4 5 6 6 6 6 6
13 13 13 12 13 14 13 12 14 15 16 19 19 18 16 15 17 19 18 20 22 21 19 17 14 14 16 16 15 14 12 13 13 12 13 13 13 14 14 13 13 12 12 12 12 11 11 11 11 10 11 11 11 12 12 11 12 11 11 10 10 10 9 9 10 10 10 10 10 10 9 7 7 7 6 5 4 4 3 4 4 4 4 5 5
15 16 16 15 14 13 13 16 16 12 14 18 19 18 16 13 12 14 16 20 21 20 21 21 16 15 17 17 16 14 12 12 12 12 13 13 13 14 14 14 13 12 12 12 12 11 11 10 9 9 10 10 10 11 11 11 11 11 11 11 11 11 10 10 11 11 11 11 10 11 10 8 8 8 7 6 6 5 3 3 3 1 2 3 4
16 17 17 19 20 20 19 18 16 13 12 12 15 18 17 14 12 13 15 17 17 17 19 20 17 16 17 17 16 14 13 11 11 12 13 14 14 14 14 14 14 13 13 12 12 11 10 9 9 8 8 8 8 9 9 9 10 10 10 10 10 11 10 10 11 10 11 11 10 10 10 8 8 9 8 8 7 7 4 2 2 2 1 1 2
14 14 16 20 25 27 24 19 17 15 10 7 10 15 14 12 12 13 14 15 15 15 16 16 15 15 16 17 15 14 14 12 12 12 13 13 14 14 14 14 14 13 13 12 12 11 10 9 8 8 7 7 7 7 7 8 8 8 8 8 8 9 9 9 9 9 10 10 9 10 9 8 9 8 8 8 8 8 6 3 2 3 2 1 2
12 14 16 17 21 26 25 22 22 20 11 6 8 12 10 9 11 13 14 14 14 14 14 15 15 14 15 16 15 14 14 14 12 13 14 14 14 15 15 14 14 13 13 12 11 11 10 9 8 7 6 6 6 6 6 6 6 6 6 4 5 7 7 6 7 7 8 8 7 8 8 7 8 7 6 7 8 7 7 6 4 3 3 3 3
11 13 14 15 19 25 26 23 24 23 18 12 10 10 11 11 13 14 14 14 13 13 15 15 15 15 16 17 16 14 15 15 14 13 14 16 16 15 15 14 14 13 13 12 12 11 10 9 8 7 6 5 5 5 5 5 5 4 3 2 2 4 4 3 4 4 5 5 5 5 4 5 6 6 5 6 5 6 7 6 5 5 4 4 4
10 11 12 13 15 20 23 24 25 23 20 17 14 12 12 14 15 15 14 13 13 13 14 15 16 16 17 18 17 15 16 17 15 14 16 17 17 17 15 15 14 14 14 13 12 12 11 9 8 7 6 6 5 5 4 5 5 3 3 2 2 2 2 1 2 2 2 2 3 3 2 2 3 4 5 4 2 4 4 3 4 5 4 5 4
10 11 11 11 10 13 17 21 23 21 19 21 21 17 15 17 16 16 14 12 12 11 11 12 13 16 18 19 19 17 18 18 16 15 16 18 18 18 16 15 15 15 15 14 13 13 12 10 9 9 8 6 5 5 4 4 4 2 1 0 0 1 1 1 1 1 1 1 1 1 0 1 1 2 2 2 2 3 2 2 3 4 4 5 5
11 12 11 10 9 10 12 15 17 16 17 19 19 16 15 15 13 12 13 13 11 9 8 9 11 15 17 18 19 19 19 19 17 15 17 18 18 18 17 16 16 16 16 15 14 13 13 12 11 9 9 8 6 5 5 4 3 2 2 3 3 3 3 3 3 3 3 3 2 2 2 2 2 1 1 1 2 2 3 2 3 3 4 4 4
13 14 13 11 11 10 10 10 11 13 13 12 11 9 10 10 8 8 10 11 11 9 8 7 8 13 17 18 19 20 20 20 19 16 17 18 18 17 17 17 17 17 16 15 15 15 14 13 12 11 10 9 8 8 8 8 7 6 6 6 6 6 7 7 7 7 6 6 6 5 4 4 4 4 4 3 4 4 4 4 4 4 4 4 3
14 15 14 14 13 12 11 10 9 9 8 7 7 6 5 5 5 4 5 7 9 8 7 6 7 11 14 16 18 19 18 19 19 17 17 19 18 17 17 18 18 18 17 17 16 16 15 14 13 13 13 13 12 12 12 11 10 11 11 10 9 9 9 10 10 9 7 8 8 7 6 7 7 6 7 7 7 6 6 5 5 5 5 5 5
14 15 15 15 14 13 12 11 10 9 8 7 7 6 6 6 5 4 4 4 5 5 5 5 7 9 11 13 15 17 16 15 17 18 18 19 19 17 17 17 18 18 17 16 16 16 15 14 14 14 15 16 15 15 14 13 13 13 13 12 11 10 10 10 11 11 9 9 9 9 9 8 8 8 9 9 9 9 9 8 7 7 7 7 7
14 14 14 14 14 14 13 12 11 10 10 9 7 6 6 6 6 6 6 6 5 5 5 5 6 7 9 10 11 13 15 16 16 17 18 18 18 18 17 18 18 17 15 15 15 16 16 16 15 16 16 16 16 16 16 16 14 13 13 13 12 10 10 10 10 11 12 13 12 12 11 10 9 9 10 10 10 11 12 12 11 11 10 10 9
14 14 14 14 14 13 13 12 11 10 10 10 9 8 8 7 6 5 5 6 6 6 6 6 6 6 8 8 8 9 12 14 15 14 16 17 17 17 17 18 19 18 15 14 15 15 16 16 16 16 16 16 15 16 16 15 14 13 13 11 9 8 8 9 8 9 13 13 12 13 13 13 13 13 14 13 14 15 16 17 17 16 15 13 11
15 15 15 15 14 13 12 11 11 10 10 10 10 10 9 7 7 6 6 5 5 5 5 5 5 6 7 7 6 6 7 9 10 10 13 15 16 16 17 18 20 19 17 15 14 15 15 15 15 15 15 15 15 15 15 14 12 11 8 6 5 4 4 4 4 5 8 8 6 7 9 11 13 15 16 16 16 17 19 19 20 20 19 17 15
15 15 15 15 15 14 13 13 12 11 11 11 11 10 9 9 9 8 7 6 5 5 6 6 6 6 6 6 6 6 7 7 7 7 9 12 13 14 14 16 17 17 17 16 16 16 15 14 13 12 13 13 13 12 10 8 7 6 4 3 3 3 3 2 2 3 4 4 4 4 5 6 8 10 11 12 12 13 16 17 19 20 20 19 18
15 15 15 15 15 15 14 14 13 12 11 11 11 10 11 11 11 10 10 9 7 7 6 6 6 5 5 6 5 5 6 7 7 7 8 8 9 10 11 12 13 14 15 14 14 12 10 8 8 8 8 9 8 7 6 5 4 4 3 3 3 3 3 2 2 2 2 3 4 4 5 6 6 8 10 10 10 11 12 14 16 18 19 20 21
16 16 16 15 15 14 14 14 13 13 13 12 11 11 12 13 12 12 12 12 11 10 8 7 6 5 5 5 3 3 4 5 6 7 7 7 8 10 11 12 12 12 11 10 9 8 6 6 6 6 7 7 7 7 6 5 4 4 5 5 4 4 3 3 3 2 2 3 3 4 4 6 7 9 9 9 9 11 13 13 14 15 17 19 21
16 16 16 15 14 14 14 14 14 13 13 12 12 12 12 12 12 12 12 11 11 10 9 9 8 7 7 6 5 4 4 4 5 5 5 6 7 9 9 9 9 9 8 8 7 7 7 7 7 7 8 8 7 6 6 5 5 6 6 5 5 4 4 4 4 4 3 4 4 4 5 6 8 9 10 9 9 10 13 14 14 15 16 17 19
16 17 16 14 14 14 14 15 15 14 13 13 13 12 12 11 11 10 10 9 9 9 9 9 8 9 9 8 7 7 6 5 5 5 5 6 7 7 8 9 9 8 8 8 9 9 8 8 8 8 7 7 6 5 5 5 5 5 4 3 3 4 4 5 5 6 6 6 6 6 7 8 10 12 12 11 10 10 12 13 14 14 15 16 16
17 17 16 14 11 10 10 11 12 12 11 11 12 12 10 10 9 8 8 8 8 8 8 8 8 8 8 7 7 8 8 7 7 7 7 7 7 8 8 9 10 9 10 10 10 9 8 8 8 7 5 5 5 4 3 3 3 3 3 3 4 4 4 5 6 6 7 7 7 8 8 10 11 12 13 13 12 11 12 12 12 12 12 12 11
15 15 16 16 13 8 6 6 6 6 6 6 7 6 3 3 4 6 8 8 8 7 7 6 6 6 5 6 6 7 8 8 8 8 8 7 6 6 7 8 8 9 9 9 9 8 8 7 7 6 5 4 3 3 3 3 4 5 4 3 2 3 4 6 6 6 7 7 8 8 8 9 11 12 12 12 12 11 10 9 8 7 8 8 10
13 13 13 13 13 12 10 8 8 7 6 6 6 3 1 2 3 4 5 5 6 6 4 4 4 3 4 4 5 5 6 7 8 9 9 7 6 7 7 7 8 8 9 9 9 8 7 6 5 4 4 4 4 4 4 5 6 6 6 3 1 2 4 6 6 7 7 7 7 8 9 9 11 12 12 11 11 8 5 4 5 5 5 7 10
12 12 11 11 10 10 9 7 6 6 6 7 7 5 4 3 2 2 2 2 3 3 2 2 2 3 4 4 5 6 6 7 8 9 10 10 10 11 10 8 8 9 9 9 8 7 7 6 6 5 4 4 4 5 6 6 6 7 6 2 0 1 2 3 4 5 7 8 8 8 9 9 10 11 11 10 8 5 3 4 5 6 6 8 11
10 9 10 10 9 8 6 5 3 3 3 3 4 4 4 1 1 1 1 3 4 5 6 6 6 7 7 8 9 9 9 9 10 11 12 12 14 14 12 10 10 10 9 9 8 8 8 7 7 7 6 6 6 5 5 5 5 6 5 4 1 1 2 1 1 2 5 7 9 9 9 9 9 8 8 8 6 4 3 4 6 7 9 12 15
10 9 8 9 9 8 8 7 7 6 5 4 3 3 3 1 1 1 4 8 9 9 10 10 10 9 8 8 8 9 9 9 9 10 10 11 13 14 13 13 13 12 11 10 9 8 9 9 9 8 7 6 5 4 3 3 4 5 6 5 2 1 2 2 2 2 2 4 8 9 8 8 8 7 6 6 5 5 6 7 9 10 13 15 17
11 11 11 10 9 10 10 10 10 10 10 10 9 7 6 5 3 4 8 11 11 12 12 13 13 13 12 12 12 12 11 10 10 10 11 12 13 13 13 13 13 13 13 13 11 11 11 11 10 8 7 6 4 3 2 3 4 5 7 7 5 4 5 3 3 3 3 5 8 9 8 7 7 6 6 7 7 9 10 11 12 14 16 17 18
12 12 14 14 12 12 14 14 14 14 14 14 14 12 12 11 10 11 13 13 13 14 14 15 16 16 16 16 16 16 15 15 14 13 13 13 14 14 15 15 15 15 16 16 16 15 14 12 10 8 7 5 4 4 3 4 5 6 8 9 8 8 8 4 3 4 5 7 9 9 7 8 8 7 8 9 11 12 13 12 12 13 14 15 16
14 14 16 17 15 15 17 17 17 17 17 17 18 17 18 17 16 18 18 18 18 18 18 18 17 16 17 18 18 18 17 18 18 18 17 16 16 16 17 17 17 17 16 15 16 15 14 12 11 10 8 7 5 5 5 5 6 7 8 10 10 9 8 6 4 5 7 8 9 8 7 8 9 9 10 11 12 13 12 11 11 12 12 13 13
14 14 16 18 17 17 18 18 18 18 19 19 19 19 20 20 20 21 21 21 22 22 22 22 21 19 19 18 18 19 20 20 20 20 20 20 19 18 18 18 17 17 16 16 15 15 15 13 12 11 9 8 8 9 8 7 8 9 10 11 11 10 9 8 7 8 9 10 9 8 9 10 10 11 12 13 13 13 12 11 12 12 12 13 13
15 16 17 18 18 17 18 18 18 19 19 20 20 21 21 22 22 24 24 23 24 25 25 25 25 24 23 21 18 18 19 20 21 21 22 22 21 20 20 19 19 18 18 17 17 17 16 15 14 13 11 11 10 12 12 10 9 10 10 11 11 10 9 9 10 11 11 10 10 10 11 11 12 12 13 14 14 13 12 12 12 12 12 13 13
18 18 19 20 19 18 18 19 20 20 20 20 21 21 22 22 23 24 24 24 25 26 26 26 26 25 25 24 22 21 20 19 20 21 22 22 22 22 22 21 20 20 20 20 20 20 19 17 16 15 13 12 11 10 11 11 10 11 11 11 11 11 10 10 12 13 12 11 11 11 11 12 12 13 13 14 14 13 12 12 12 12 13 14 14
18 19 21 22 21 20 20 20 21 21 21 21 21 22 22 23 23 23 24 24 25 27 28 28 27 26 26 25 24 24 24 23 20 19 20 21 22 22 23 23 22 21 21 20 20 20 20 19 19 17 15 14 12 10 10 10 11 12 12 12 12 12 11 11 13 14 13 11 10 10 11 12 12 12 12 11 11 11 12 11 10 10 12 13 12
16 18 20 21 21 20 20 19 19 20 20 19 20 21 22 23 23 23 23 24 25 28 29 29 27 26 25 24 23 23 24 23 20 18 20 23 24 24 23 23 23 24 24 22 20 18 17 16 16 15 15 14 11 10 11 11 12 12 12 13 14 12 11 13 14 13 12 11 10 11 11 11 10 10 9 7 8 9 10 10 11 9 8 8 8
17 18 19 18 18 18 18 18 18 18 17 17 17 18 19 20 21 22 22 23 24 25 27 27 25 23 22 21 21 21 20 21 21 20 20 25 29 30 28 25 25 28 28 26 24 21 18 16 14 12 12 13 13 12 13 13 13 13 14 15 15 14 13 14 14 12 11 11 11 10 10 8 7 7 6 5 6 7 6 7 9 8 6 7 8
17 18 17 16 16 17 18 18 18 17 17 16 16 15 16 16 18 19 20 20 20 21 22 22 21 20 20 19 19 19 19 19 20 20 19 20 23 26 28 28 28 29 29 28 27 25 23 21 19 16 16 18 17 16 16 16 14 14 16 16 16 16 15 14 14 13 12 12 10 9 9 8 7 7 6 6 6 6 4 4 5 5 5 8 8
Wind_Direction
204 199 196 193 194 194 189 186 186 186 185 183 186 185 184 186 182 181 183 183 177 170 161 154 150 153 154 158 153 144 151 160 160 158 157 171 159 141 139 138 145 149 138 115 116 135 138 146 167 185 198 210 234 247 259 266 260 243 242 240 234 236 241 238 233 228 228 241 246 245 245 244 243 236 224 218 231 234 227 230 237 243 253 257 253
202 199 195 194 195 193 188 187 186 186 186 183 181 181 184 184 180 179 177 176 175 163 149 147 146 149 150 150 146 137 142 149 150 156 157 156 137 130 127 121 124 128 131 133 132 142 151 169 185 193 205 213 231 259 276 289 290 260 260 251 228 227 240 240 235 227 225 239 246 251 251 250 251 246 237 228 229 242 243 241 245 247 253 268 279
204 201 200 198 195 193 190 189 185 185 188 184 182 184 182 178 176 176 173 170 166 153 149 149 142 137 138 138 139 137 142 148 151 155 141 125 122 122 123 122 117 112 114 125 136 144 148 199 252 230 221 213 233 269 273 281 286 275 279 276 245 222 230 240 235 220 217 238 241 244 245 245 253 255 249 241 234 235 235 234 253 260 259 266 283
204 205 206 200 192 187 187 185 179 185 190 183 186 187 174 177 180 169 164 161 159 158 155 149 141 134 130 131 136 139 146 149 148 144 129 119 116 111 115 116 110 108 105 101 104 108 113 104 50 77 84 88 110 195 256 261 264 257 264 271 267 220 213 232 231 215 211 222 238 246 241 241 253 254 242 238 244 244 228 213 241 252 263 269 276
208 208 206 201 194 187 182 178 176 187 192 183 188 186 173 182 190 173 165 159 160 167 158 146 142 136 129 129 132 135 139 138 134 132 124 118 117 112 110 109 107 107 102 95 95 95 106 117 95 89 100 112 118 110 173 218 212 209 229 252 262 250 234 244 237 215 214 213 226 243 238 237 244 255 239 217 217 231 204 193 243 245 255 265 265
214 213 212 208 199 185 175 170 175 191 195 187 186 185 181 186 190 188 182 171 167 167 153 141 139 129 122 126 132 138 138 137 141 138 127 124 123 118 111 108 110 112 106 99 95 93 99 109 104 88 90 112 129 124 147 195 197 173 149 182 249 243 235 251 256 236 226 219 221 228 226 225 218 246 252 204 191 224 202 187 211 289 253 238 223
218 223 216 175 134 147 159 165 186 199 192 185 186 187 186 182 185 193 192 184 176 162 145 138 137 127 119 125 134 141 143 146 150 142 133 132 124 116 113 112 114 112 111 106 98 96 94 98 108 101 89 97 108 104 105 120 190 182 169 154 146 214 215 233 253 243 234 229 224 219 225 235 230 234 237 193 154 199 217 218 212 223 254 233 219
215 215 167 107 93 132 173 185 204 209 193 184 189 191 187 179 184 193 192 190 183 162 148 141 139 134 130 134 136 142 148 146 142 134 131 130 120 117 115 114 116 114 115 111 101 95 90 86 92 94 90 83 72 69 81 87 99 121 165 166 151 168 168 145 234 237 220 225 230 230 245 252 243 232 234 220 165 189 208 213 217 225 244 237 233
192 173 165 175 184 195 197 200 211 217 210 201 199 199 192 184 188 193 193 191 184 171 159 148 141 140 140 141 140 142 144 139 136 133 129 126 122 123 122 115 116 118 119 115 104 98 93 87 85 85 88 88 79 68 81 97 100 93 110 152 174 179 147 102 83 71 102 167 215 242 255 282 296 283 254 232 204 216 206 171 156 165 106 83 223
166 167 185 205 200 193 198 200 207 216 220 221 220 215 197 187 193 195 195 195 188 183 170 156 147 146 146 143 140 141 139 136 137 134 129 129 126 125 123 118 117 120 120 116 110 106 102 96 90 87 86 88 88 82 81 91 99 100 112 128 153 171 183 156 105 81 87 111 108 91 88 21 344 343 328 229 203 211 187 148 135 119 98 90 95
155 168 175 188 188 181 194 196 199 203 210 217 220 214 191 191 210 206 199 199 194 191 181 166 154 148 146 140 139 140 136 134 133 131 132 134 132 130 127 126 126 124 120 117 116 113 108 103 97 92 88 87 89 89 87 87 87 83 79 77 77 81 81 83 103 107 95 97 97 88 72 61 55 37 29 10 190 177 152 134 129 122 109 100 97
148 160 166 182 184 156 158 161 165 179 189 203 208 194 173 184 206 213 206 201 198 195 187 175 160 151 146 140 139 140 136 132 127 127 133 135 136 135 130 128 128 125 120 117 117 113 108 104 98 93 91 90 91 94 96 94 86 78 74 73 71 71 71 68 71 85 87 79 78 74 62 60 56 43 43 40 102 147 151 139 128 118 110 105 99
140 148 160 175 166 151 157 151 153 186 198 207 214 206 182 177 185 198 204 203 201 199 192 179 164 156 153 147 142 140 138 134 128 128 135 139 139 135 130 128 127 125 122 119 117 111 105 101 97 95 93 91 92 95 99 102 94 84 83 87 86 83 83 81 79 84 86 81 73 66 57 57 59 58 58 52 75 126 140 137 131 121 115 114 108
127 131 148 161 152 153 162 167 178 194 201 209 215 212 204 199 196 196 201 205 205 202 197 183 168 162 159 153 148 146 143 138 136 137 141 143 141 135 131 130 129 128 126 122 117 110 103 100 97 95 94 91 91 92 97 103 99 92 93 97 99 97 94 92 90 88 89 87 82 75 70 68 67 69 69 63 69 112 139 140 134 125 119 120 118
116 126 143 147 145 145 141 152 175 183 190 200 205 204 205 209 209 207 209 213 209 204 198 187 175 168 164 158 153 153 149 146 147 147 148 149 144 137 132 132 132 130 128 124 117 109 102 100 98 96 96 92 91 91 91 95 97 95 95 98 100 100 100 100 97 95 95 94 93 84 73 74 81 77 72 76 81 95 126 144 140 130 126 126 124
122 130 134 131 133 136 126 125 148 171 183 183 183 187 192 198 202 205 211 216 213 205 196 192 187 176 171 166 160 159 157 155 156 152 151 153 147 140 137 137 137 134 132 125 117 111 103 100 98 96 95 91 90 91 89 91 93 91 90 91 93 94 96 99 99 98 97 95 96 91 79 80 94 91 83 94 114 111 117 142 145 139 138 136 136
120 122 120 121 123 124 127 128 132 154 177 174 166 163 170 180 188 198 209 212 211 205 197 196 193 182 179 175 168 167 165 161 161 158 157 158 153 148 146 144 143 142 136 128 121 117 110 104 99 94 93 89 88 89 89 90 88 87 87 86 87 89 90 93 94 95 96 93 93 92 86 85 93 95 93 98 112 118 125 155 163 178 179 159 160
114 116 117 117 114 112 119 127 126 132 152 165 162 156 162 175 179 190 205 210 213 215 208 204 199 188 186 183 176 175 174 169 168 168 167 166 161 157 153 149 151 151 145 138 132 127 122 117 109 101 95 90 87 85 85 87 85 85 86 84 85 85 83 85 88 90 94 94 94 94 91 90 93 95 96 97 103 108 112 159 190 203 234 210 187
115 117 118 115 113 112 116 122 120 124 140 171 169 159 164 179 180 186 200 209 220 226 223 218 210 197 193 191 186 184 184 180 175 175 176 175 170 165 160 157 159 162 157 151 145 139 136 130 122 116 107 98 91 85 80 79 79 80 81 82 84 84 78 78 82 84 87 90 93 96 96 97 96 92 96 100 100 100 97 101 157 182 199 192 168
123 119 117 117 119 117 117 121 121 124 138 166 167 161 165 180 187 191 197 204 214 220 219 220 216 206 201 199 197 197 197 191 184 183 182 180 177 175 172 169 170 171 168 163 156 151 149 143 135 129 121 113 104 95 87 81 77 76 81 81 77 82 79 73 76 78 79 82 82 85 91 98 97 92 95 101 101 103 102 97 103 138 162 155 151
129 124 119 121 127 124 121 125 128 129 135 144 158 171 178 187 197 203 202 201 206 211 211 214 215 210 206 205 207 208 206 199 192 192 190 184 183 183 181 180 180 180 177 171 167 162 158 156 153 147 141 137 127 116 107 99 94 91 93 87 60 81 89 77 75 75 71 75 78 75 74 85 95 96 94 93 94 98 97 94 98 114 134 140 145
132 129 129 129 136 139 137 138 138 136 138 145 152 159 177 196 207 211 209 206 209 212 212 215 218 217 212 209 212 213 209 204 198 197 197 190 187 188 188 187 187 187 184 178 176 175 172 169 171 172 168 161 150 141 130 119 119 116 103 89 69 94 121 122 95 80 52 47 75 87 63 55 79 96 100 105 108 100 93 93 103 113 127 131 133
134 135 138 136 142 154 157 154 152 151 153 161 165 168 185 203 209 212 215 217 216 214 213 214 218 219 214 210 213 213 207 205 201 201 202 196 192 192 192 192 191 190 188 185 184 184 184 186 190 192 187 181 178 173 164 148 140 136 111 88 102 134 163 175 142 128 173 292 36 99 266 332 34 81 112 147 161 130 133 142 126 124 134 135 135
132 133 136 136 135 147 161 163 166 170 172 176 182 188 195 202 206 211 216 217 215 211 210 211 214 216 212 208 211 212 209 205 203 203 204 199 194 194 195 195 194 193 192 192 192 194 198 202 205 208 206 204 209 215 212 208 212 230 261 281 281 273 264 252 247 237 224 239 241 207 233 270 275 262 215 201 196 171 169 170 156 147 147 149 147
129 124 124 126 124 129 140 147 157 170 173 174 179 183 188 196 203 209 215 218 221 223 216 204 202 206 206 207 209 212 213 211 206 204 205 202 196 194 197 198 197 199 201 201 203 205 208 214 219 224 223 217 220 232 239 244 250 251 259 275 280 279 279 271 261 256 250 247 246 231 222 238 255 262 249 235 232 214 198 196 193 182 183 192 187
121 116 115 118 121 125 128 129 135 144 148 147 146 144 149 170 185 198 210 214 218 220 208 191 191 197 199 202 207 210 213 215 213 209 205 204 201 197 199 201 201 206 210 212 213 214 217 222 229 236 238 234 236 245 252 255 258 260 265 273 277 280 284 276 261 256 258 259 260 255 243 242 249 252 249 249 249 229 208 213 224 218 216 221 218
117 115 115 116 119 121 122 123 124 127 131 132 133 133 132 137 147 165 184 198 205 193 175 177 190 198 198 198 204 210 212 215 219 216 207 204 206 204 203 205 207 211 215 218 220 223 227 231 235 242 245 246 249 253 258 261 262 264 269 276 279 279 281 275 263 256 257 259 260 259 253 251 251 251 255 260 259 248 235 230 229 224 227 233 231
117 116 115 111 109 111 112 113 114 119 125 123 121 124 129 132 138 155 174 187 200 196 184 183 186 198 207 204 208 218 221 218 218 219 212 206 208 210 209 209 211 214 219 227 230 232 236 241 244 247 249 251 253 255 258 261 261 263 270 278 282 278 275 274 268 261 260 263 265 264 257 252 246 242 246 251 253 255 252 246 240 234 232 237 241
114 110 105 100 98 102 105 106 103 105 114 118 118 114 114 119 120 124 145 162 176 180 178 176 170 183 200 200 202 216 221 217 213 214 214 209 209 212 210 209 212 215 221 231 236 238 241 246 248 249 251 253 255 256 258 260 260 263 270 274 274 274 272 271 268 266 271 274 275 271 261 253 246 240 242 254 264 268 268 264 258 249 238 233 239
103 98 96 94 93 95 99 102 103 103 107 112 112 110 111 113 110 105 108 122 137 141 142 146 151 167 182 183 184 187 192 201 205 208 211 211 212 213 210 210 213 219 226 235 244 246 246 247 247 248 250 251 253 256 258 259 258 257 258 255 253 261 269 267 251 254 273 287 293 283 269 260 257 254 256 266 274 275 274 270 263 258 252 247 246
96 94 94 93 91 91 92 97 103 104 106 108 106 105 108 109 107 106 104 107 119 126 129 136 144 159 169 166 174 177 172 176 186 194 201 208 214 217 218 217 220 228 235 240 246 248 247 245 243 242 246 246 247 249 247 242 237 228 221 222 236 250 258 269 259 246 272 303 318 309 299 287 277 274 274 276 277 277 277 274 266 262 260 257 253
91 90 89 88 87 88 90 94 96 95 94 96 99 102 105 108 110 109 106 106 110 116 125 135 146 160 166 169 183 194 185 179 182 191 197 201 210 218 221 222 224 231 235 234 234 234 234 231 223 219 222 223 221 216 206 203 207 213 226 238 254 266 268 270 269 263 280 300 304 305 305 300 293 292 293 292 288 284 283 280 274 268 263 259 254
86 85 84 83 80 83 89 93 94 94 93 92 99 107 107 104 104 103 102 102 102 106 112 118 124 134 142 152 167 176 183 191 200 208 210 211 220 227 227 224 222 220 215 207 204 200 193 185 176 173 178 184 187 189 195 208 220 236 257 269 273 276 273 264 257 251 251 268 282 292 294 291 289 291 293 292 289 285 283 282 280 275 269 263 257
81 80 79 79 80 86 93 96 93 91 94 98 102 103 101 98 96 95 95 95 97 101 104 107 111 112 111 116 124 131 146 169 189 201 203 202 210 218 218 213 209 204 193 182 180 178 172 167 164 166 175 186 195 201 212 230 245 258 269 274 277 276 275 277 275 270 264 262 270 278 277 278 282 287 289 289 284 280 279 281 281 280 275 266 257
73 76 79 82 88 95 100 102 99 91 88 94 96 92 92 96 96 95 94 95 99 104 106 110 113 113 113 114 118 126 131 137 152 164 166 172 179 182 183 181 180 177 168 165 171 175 177 177 173 175 186 197 204 213 228 240 251 264 271 276 287 291 289 290 289 285 281 278 277 278 277 276 277 282 289 293 293 288 283 280 277 276 274 269 260
66 73 78 80 84 96 105 108 110 106 100 98 97 92 89 90 92 95 96 96 102 108 113 118 120 120 121 123 127 133 135 136 143 146 148 158 165 165 167 166 164 164 163 163 169 175 180 182 173 166 180 203 210 215 232 248 262 284 304 318 318 313 303 297 295 289 283 279 276 276 278 279 278 278 284 291 294 293 288 282 276 270 267 263 256
63 66 70 70 65 68 86 87 85 95 101 101 102 99 80 58 73 91 97 100 108 111 111 116 121 122 127 135 144 150 150 152 154 154 157 166 173 177 180 177 174 177 179 180 183 181 178 179 175 164 168 204 234 243 261 289 303 308 320 338 339 314 303 301 299 291 285 281 275 271 269 270 272 274 278 284 288 287 283 277 269 264 264 260 254
60 59 64 69 65 63 68 70 72 80 87 86 85 86 75 59 76 91 96 103 111 109 104 107 114 119 126 137 152 159 163 168 169 170 176 187 201 204 203 194 186 185 186 186 186 187 186 191 200 196 191 220 260 283 297 309 315 316 327 352 2 305 307 310 308 300 294 289 279 272 268 265 269 275 279 284 289 285 268 250 248 249 253 258 261
50 53 55 56 57 58 60 68 85 94 95 92 86 82 91 108 120 116 102 99 116 127 133 142 166 187 194 204 214 215 214 214 211 211 215 223 224 217 212 206 196 191 191 190 188 194 203 214 228 236 236 243 266 290 301 310 315 319 333 5 51 273 304 317 310 301 299 296 287 279 278 277 279 284 289 297 302 294 232 224 242 244 242 256 272
30 35 41 35 27 27 28 24 30 44 57 77 80 68 65 95 182 178 201 219 215 214 217 217 218 222 227 233 236 237 238 237 235 236 238 235 228 223 221 218 210 203 200 198 196 200 210 224 240 249 254 257 265 280 293 305 316 322 335 355 349 258 288 310 281 272 288 294 294 290 287 288 292 296 302 312 318 312 270 254 257 253 253 266 280
9 3 10 14 7 358 352 343 331 325 326 317 320 1 8 1 29 314 243 237 235 232 230 231 232 234 239 246 249 248 245 239 236 234 227 219 217 222 225 220 213 209 208 209 211 215 223 236 244 246 249 252 256 264 278 301 320 323 330 342 350 239 278 295 268 241 234 267 289 293 287 288 297 302 304 306 304 299 289 277 271 267 268 275 283
356 348 341 344 349 339 328 323 314 309 308 302 295 295 288 280 288 278 255 245 243 244 243 244 245 245 245 245 246 246 242 234 228 224 221 218 217 222 228 222 215 219 229 237 239 232 227 232 238 237 236 238 243 256 278 307 325 325 326 329 320 294 297 290 260 258 223 232 274 287 279 278 291 293 288 287 288 290 290 284 277 273 273 276 280
344 340 328 327 332 324 315 313 308 303 301 297 292 289 282 274 270 267 261 257 254 253 251 251 250 250 249 247 246 248 246 240 234 229 228 228 229 233 236 233 232 238 245 247 245 235 225 226 231 227 226 231 243 263 285 309 321 322 321 319 312 306 307 295 254 247 234 245 275 284 268 266 276 277 279 285 292 297 298 294 289 285 282 282 285
331 329 321 318 320 316 310 309 306 302 300 296 293 289 284 278 273 267 264 262 260 257 256 256 256 255 253 249 246 247 247 246 245 241 235 234 235 238 239 239 241 242 236 232 231 226 220 219 218 216 223 239 257 272 283 299 312 319 319 316 311 306 302 289 254 230 235 260 284 284 266 268 275 277 284 292 298 303 306 304 303 302 300 299 300
320 318 314 312 312 309 305 304 302 299 297 294 291 288 284 281 276 272 268 264 260 258 257 257 258 259 259 257 254 250 248 247 248 245 239 237 239 238 236 236 237 235 229 225 224 219 216 218 216 215 222 234 256 277 286 292 304 312 314 312 309 304 297 280 256 246 258 275 285 277 269 273 278 283 291 297 301 306 307 304 305 307 307 308 308
314 312 310 308 307 305 303 300 297 295 294 291 289 286 284 281 278 276 274 270 266 262 258 256 255 256 258 260 261 258 254 251 250 248 243 240 239 237 235 235 235 232 230 230 229 227 227 230 231 232 235 234 245 268 279 283 293 302 303 302 301 299 292 272 257 258 266 273 273 270 269 272 277 286 293 295 298 302 302 302 305 308 310 312 311
315 314 312 311 310 307 304 300 298 295 293 290 288 286 284 282 278 276 274 273 270 266 262 259 256 255 255 256 258 259 257 255 253 251 247 243 240 237 235 234 233 232 232 232 234 236 236 235 236 241 242 235 234 249 265 275 286 293 294 292 290 289 283 267 257 257 261 265 268 269 269 273 279 286 290 291 294 298 301 306 309 310 312 314 312
320 318 316 316 314 310 306 304 301 298 293 289 287 285 282 279 277 275 273 271 268 267 264 261 258 256 254 254 254 256 256 256 256 254 250 245 241 237 235 236 234 233 233 234 236 239 241 240 242 244 243 237 235 237 244 262 279 286 285 283 282 280 271 259 253 253 255 260 263 262 267 274 280 285 287 289 292 297 303 309 311 310 313 316 317
319 316 316 316 314 311 309 306 301 297 294 290 286 283 280 278 276 275 273 271 268 267 265 262 260 259 257 255 253 253 254 254 253 251 249 248 244 237 233 235 234 230 228 228 230 234 238 239 242 245 243 240 241 238 237 254 273 276 271 271 273 270 260 254 254 253 252 255 255 255 263 271 274 278 280 276 281 295 305 308 310 312 310 309 314
313 312 313 312 311 309 308 304 301 298 293 288 286 284 282 280 276 272 270 269 269 268 266 263 260 259 258 256 254 251 250 248 247 246 248 252 251 245 237 233 232 231 230 228 225 225 229 232 235 239 239 238 238 241 248 264 274 270 263 263 263 262 260 258 255 248 243 247 249 247 251 253 252 258 260 254 270 292 300 301 310 317 310 306 317
310 309 309 306 303 301 299 297 296 293 289 286 284 283 282 281 278 274 271 268 265 265 264 262 259 258 256 255 254 251 249 247 245 243 242 245 249 247 241 235 234 235 235 231 228 229 234 238 240 241 243 245 247 251 259 267 269 265 263 260 258 259 261 257 251 242 236 237 236 227 228 234 231 230 239 247 266 284 284 289 315 326 317 321 333